TimeEDT,TemperatureF,Dew PointF,Humidity,Sea Level PressureIn,VisibilityMPH,Wind Direction,Wind SpeedMPH,Gust SpeedMPH,PrecipitationIn,Events,Conditions,WindDirDegrees,DateUTC
12:51 AM,71.1,57.9,63,30.22,10.0,SSW,10.4,-,N/A,,Scattered Clouds,200,2013-08-26 04:51:00
1:51 AM,70.0,57.0,63,30.21,10.0,SSW,9.2,-,N/A,,Partly Cloudy,210,2013-08-26 05:51:00
2:51 AM,70.0,57.0,63,30.19,10.0,SSW,10.4,-,N/A,,Clear,200,2013-08-26 06:51:00
3:51 AM,69.1,55.9,63,30.18,10.0,SSW,10.4,-,N/A,,Partly Cloudy,200,2013-08-26 07:51:00
4:51 AM,69.1,57.0,65,30.19,10.0,SSW,9.2,-,N/A,,Partly Cloudy,210,2013-08-26 08:51:00
5:51 AM,68.0,57.0,68,30.19,10.0,SSW,10.4,-,N/A,,Partly Cloudy,210,2013-08-26 09:51:00
6:51 AM,68.0,57.0,68,30.20,10.0,SW,9.2,-,N/A,,Partly Cloudy,230,2013-08-26 10:51:00
7:51 AM,69.1,57.9,68,30.21,10.0,SW,10.4,-,N/A,,Scattered Clouds,230,2013-08-26 11:51:00
8:51 AM,72.0,59.0,64,30.20,10.0,SW,6.9,-,N/A,,Mostly Cloudy,220,2013-08-26 12:51:00
9:51 AM,75.9,60.1,58,30.18,10.0,SW,8.1,-,N/A,,Mostly Cloudy,230,2013-08-26 13:51:00
10:51 AM,80.1,61.0,52,30.19,10.0,WSW,12.7,-,N/A,,Mostly Cloudy,240,2013-08-26 14:51:00
11:51 AM,82.9,62.1,49,30.17,10.0,SW,10.4,-,N/A,,Mostly Cloudy,230,2013-08-26 15:51:00
12:51 PM,84.9,61.0,44,30.14,10.0,WSW,13.8,-,N/A,,Mostly Cloudy,250,2013-08-26 16:51:00
1:51 PM,84.0,64.0,51,30.12,10.0,SW,11.5,-,N/A,,Overcast,220,2013-08-26 17:51:00
2:51 PM,84.0,64.0,51,30.09,10.0,SW,12.7,-,N/A,,Overcast,220,2013-08-26 18:51:00
3:51 PM,84.9,64.0,49,30.06,10.0,SSW,13.8,-,N/A,,Mostly Cloudy,210,2013-08-26 19:51:00
4:51 PM,84.9,63.0,48,30.05,10.0,SW,15.0,23.0,N/A,,Mostly Cloudy,230,2013-08-26 20:51:00
5:51 PM,84.9,63.0,48,30.04,10.0,WSW,12.7,-,N/A,,Mostly Cloudy,240,2013-08-26 21:51:00
6:51 PM,82.9,66.0,56,30.03,10.0,WSW,12.7,-,N/A,,Mostly Cloudy,240,2013-08-26 22:51:00
7:51 PM,82.0,64.9,56,30.03,10.0,WSW,9.2,-,N/A,,Mostly Cloudy,240,2013-08-26 23:51:00
8:51 PM,81.0,64.9,58,30.03,10.0,SW,11.5,-,N/A,,Mostly Cloudy,230,2013-08-27 00:51:00
9:51 PM,79.0,66.0,64,30.02,10.0,SW,8.1,-,N/A,,Mostly Cloudy,230,2013-08-27 01:51:00
10:51 PM,79.0,66.0,64,30.02,10.0,SW,8.1,-,N/A,,Mostly Cloudy,230,2013-08-27 02:51:00
11:51 PM,78.1,66.0,66,30.02,10.0,SW,6.9,-,N/A,,Mostly Cloudy,230,2013-08-27 03:51:00